Weather History for Nadi, Fiji

Change the Weather History Date:

Saturday, November 10, 2012

  Actual Average Record
Temperature  
Mean Temperature 75 °F -  
Max Temperature 84 °F 84 °F 89 °F (2001)
Min Temperature 66 °F 71 °F 64 °F (2012)
Cooling Degree Days 10    
Growing Degree Days 25 (Base 50)    
Moisture  
Dew Point 63 °F    
Average Humidity 68    
Maximum Humidity 88    
Minimum Humidity 45    
Precipitation  
Precipitation 0.00 in 0.19 in - ()
Sea Level Pressure  
Sea Level Pressure 29.94 in    
Wind  
Wind Speed 8 mph ()    
Max Wind Speed 15 mph    
Max Gust Speed -    
Visibility 12.0 miles    
Events      
Averages and records for this station are not official NWS values.
T = Trace of Precipitation, MM = Missing Value Source: Averaged Metar Reports

Daily Weather History Graph

Daily Weather History Graph

Search for Another Location

Airport:

Trip Planner

Search our weather history database for the weather conditions in past years. The results will help you decide how hot, cold, wet, or windy it might be!

Date:

Astronomy

Nov. 10, 2012 Rise Set
Actual Time 6:27 AM FJST 7:20 PM FJST
Civil Twilight 6:04 AM FJST 7:43 PM FJST
Nautical Twilight 5:37 AM FJST 8:10 PM FJST
Astronomical Twilight 5:10 AM FJST 8:38 PM FJST
Moon 3:05 AM FJST (11/10) 3:31 PM FJST (11/10)
Length of Visible Light 13h 38m
Length of Day
12h 52m
Waning Crescent, 21% of the Moon is Illuminated
Nov 10
Waning Crescent
Nov 14
New
Nov 21
First Quarter
Nov 29
Full
Dec 7
Last Quarter

Hourly Weather History & Observations

Time (FJST) Temp. Heat Index Dew Point Humidity Pressure Visibility Wind Dir Wind Speed Gust Speed Precip Events Conditions
12:00 AM 68.0 °F - 62.6 °F 83% 29.95 in 31.1 mi SE 8.1 mph - N/A   Partly Cloudy
1:00 AM 68 °F - 62 °F 77% 29.95 in 31 mi SE 8.1 mph - -   Partly Cloudy
1:00 AM 68.0 °F - 62.6 °F 83% 29.95 in 31.1 mi SE 8.1 mph - N/A   Partly Cloudy
2:00 AM 68.0 °F - 62.6 °F 83% 29.92 in 31.1 mi SE 5.8 mph - N/A   Partly Cloudy
3:00 AM 68.0 °F - 62.6 °F 83% 29.92 in 31.1 mi SE 5.8 mph - N/A   Partly Cloudy
4:00 AM 68 °F - 62 °F 76% 29.92 in 31 mi SSE 8.1 mph - -   Partly Cloudy
4:00 AM 68.0 °F - 62.6 °F 83% 29.92 in 31.1 mi SSE 8.1 mph - N/A   Scattered Clouds
5:00 AM 68.0 °F - 62.6 °F 83% 29.92 in 31.1 mi South 5.8 mph - N/A   Partly Cloudy
6:00 AM 68.0 °F - 62.6 °F 83% 29.92 in 31.1 mi SSE 4.6 mph - N/A   Partly Cloudy
7:00 AM 66 °F - 62 °F 83% 29.95 in 31 mi South 4.6 mph - -   Partly Cloudy
7:00 AM 66.2 °F - 62.6 °F 88% 29.95 in 31.1 mi South 4.6 mph - N/A   Partly Cloudy
8:00 AM 71.6 °F - 62.6 °F 73% 29.98 in 31.1 mi South 5.8 mph - N/A   Partly Cloudy
9:00 AM 75.2 °F - 64.4 °F 69% 29.98 in 31.1 mi SE 11.5 mph - N/A   Partly Cloudy
10:00 AM 76 °F - 63 °F 56% 29.98 in 31 mi SE 13.8 mph - -   Partly Cloudy
10:00 AM 75.2 °F - 62.6 °F 65% 29.98 in 31.1 mi SE 13.8 mph - N/A   Partly Cloudy
11:00 AM 77.0 °F - 64.4 °F 65% 29.95 in 31.1 mi ESE 13.8 mph - N/A   Partly Cloudy
12:00 PM 80.6 °F 82.3 °F 64.4 °F 58% 29.95 in 31.1 mi SSE 11.5 mph - N/A   Partly Cloudy
1:00 PM 80 °F - 62 °F 45% 29.93 in 31 mi SE 15.0 mph - -   Partly Cloudy
1:00 PM 80.6 °F 81.8 °F 62.6 °F 54% 29.92 in 31.1 mi SE 15.0 mph - N/A   Partly Cloudy
2:00 PM 84.2 °F 85.6 °F 64.4 °F 51% 29.89 in 31.1 mi East 6.9 mph - N/A   Scattered Clouds
3:00 PM 84.2 °F 85.6 °F 64.4 °F 51% 29.89 in 31.1 mi ESE 6.9 mph - N/A   Scattered Clouds
4:00 PM 81 °F - 64 °F 46% 29.89 in 31 mi East 9.2 mph - -   Partly Cloudy
4:00 PM 80.6 °F 82.3 °F 64.4 °F 58% 29.89 in 31.1 mi East 9.2 mph - N/A   Scattered Clouds
5:00 PM 80.6 °F 82.3 °F 64.4 °F 58% 29.89 in 31.1 mi East 11.5 mph - N/A   Scattered Clouds
6:00 PM 78.8 °F - 64.4 °F 61% 29.89 in 31.1 mi East 10.4 mph - N/A   Scattered Clouds
7:00 PM 77 °F - 63 °F 53% 29.93 in 31 mi ESE 10.4 mph - -   Partly Cloudy
7:00 PM 77.0 °F - 62.6 °F 61% 29.92 in 31.1 mi ESE 10.4 mph - N/A   Scattered Clouds
8:00 PM 75.2 °F - 62.6 °F 65% 29.95 in 28.0 mi ESE 8.1 mph - N/A   Mostly Cloudy
9:00 PM 71.6 °F - 62.6 °F 73% 29.95 in 28.0 mi ESE 10.4 mph - N/A   Scattered Clouds
10:00 PM 72 °F - 62 °F 64% 29.98 in 12 mi ESE 9.2 mph - -   Partly Cloudy
10:00 PM 71.6 °F - 62.6 °F 73% 29.98 in 28.0 mi ESE 9.2 mph - N/A   Mostly Cloudy
11:00 PM 71.6 °F - 62.6 °F 73% 29.98 in 24.9 mi ESE 6.9 mph - N/A   Scattered Clouds